Zurück zum Katalog

SL-8 R/B

AktivPO
NORAD 15506·ROCKET BODY·🇷🇺 Russia

Gestartet Feb 1, 1985 von Plesetsk Cosmodrome

Loading…

Nächste Überflüge (nächste 24 Stunden)

TLE

AktuellSource: Space-Track

Epoche: Sep 14, 2026, 15:12 UTC

1 15506U 85011B   26257.63346422  .00000103  00000-0  89531-4 0  9998
2 15506  82.9188 306.7915 0035578 332.4372 192.9161 13.76529735 89574

Verfolge SL-8 R/B in Echtzeit mit AllMySat

Download on the App Store